Simultaneous Nadir Overpasses (SNOs) Predictions

Prediction of SNOs between NOAA-20 and AQUA Satellite Orbit:

Table of predicted SNOs for the next 14.0 days since TLE Epoch: 6/3/2023
Index Date (NOAA-20) Time (NOAA-20) Lat,Lon (NOAA-20) SZA (NOAA-20 ) Date (AQUA) Time (AQUA) Lat,Lon (AQUA) SZA (AQUA ) Distance(km) Time Diff (sec)
1 06/04/2023 09:11:47 80.29, -52.96 68.70 06/04/2023 09:12:11 80.29, -52.94 68.68 0.43 24
2 06/04/2023 10:02:26 -80.44, 116.34 111.66 06/04/2023 10:01:31 -80.44, 116.22 111.60 2.23 55
3 06/06/2023 23:47:09 80.35, 88.94 68.31 06/06/2023 23:47:15 80.35, 88.91 68.31 0.55 6
4 06/07/2023 00:37:51 -80.43,-102.69 111.89 06/07/2023 00:36:37 -80.44,-102.53 111.86 3.16 74
5 06/09/2023 13:31:51 -80.29, 62.05 111.78 06/09/2023 13:32:58 -80.28, 61.88 111.80 3.19 67
6 06/09/2023 14:22:33 80.35,-129.83 68.08 06/09/2023 14:22:20 80.35,-129.80 68.08 0.58 13
7 06/12/2023 04:07:15 -80.29,-156.73 111.96 06/12/2023 04:08:02 -80.29,-156.75 111.99 0.36 47
8 06/12/2023 04:57:54 80.43, 12.34 67.73 06/12/2023 04:57:22 80.42, 12.18 67.78 3.10 32
9 06/14/2023 18:42:36 -80.35, -14.91 112.20 06/14/2023 18:43:03 -80.34, -15.01 112.20 1.94 27



Historial Predications of SNOs between NOAA-20 and AQUA
